GFSFLT1_500_spd_159.txt.gz
Wind_Speed
23 22 22 22 22 20 18 19 17 18 17 18 19 18 20 21 22 22 22 23 23 22 23 21 21 22 20 19 20 18 18 16 16
23 22 23 23 23 21 13 16 20 19 18 19 19 19 19 21 21 23 23 23 23 23 22 22 22 25 24 23 21 20 18 16 17
18 17 17 19 19 19 17 19 20 22 23 21 21 20 19 20 22 23 26 25 24 22 21 22 23 24 24 25 24 21 19 17 17
17 17 16 16 18 18 18 20 20 19 15 22 22 23 22 21 21 21 21 23 24 23 22 21 23 26 26 25 25 25 23 23 19
15 15 14 18 20 19 19 21 22 21 20 16 25 28 27 26 24 22 20 21 23 24 22 21 23 24 25 25 25 24 25 25 23
18 19 18 18 21 25 23 23 25 24 23 23 21 32 33 30 26 24 23 23 24 23 23 22 23 23 23 25 25 25 25 26 27
22 23 24 24 23 24 30 27 29 28 29 26 23 27 37 33 29 26 26 25 24 23 22 22 23 22 22 23 24 25 25 26 27
19 20 20 20 20 19 24 31 33 32 30 29 25 30 39 34 38 27 25 25 25 25 25 26 25 24 24 24 24 24 24 26 28
19 19 20 18 18 19 19 26 33 32 33 31 25 23 30 32 33 31 29 28 29 28 26 26 26 25 25 25 26 27 27 29 30
20 19 19 19 19 20 22 22 27 29 30 31 29 28 28 31 32 32 32 31 32 32 31 30 30 30 29 29 29 29 30 32 32
21 20 19 17 17 15 16 20 22 28 29 29 31 30 36 34 31 35 33 32 34 34 34 34 34 34 34 34 34 35 34 35 36
20 18 19 20 16 14 17 15 20 27 30 31 32 35 41 32 33 31 32 36 36 37 37 37 37 38 38 37 37 36 37 40 40
20 18 17 20 21 18 17 17 14 17 21 21 35 35 41 42 39 42 39 38 38 35 36 37 39 39 40 41 42 40 44 44 45
19 19 16 18 21 23 22 18 18 15 16 20 21 27 41 44 45 40 42 38 36 37 39 40 41 42 41 43 43 43 45 47 50
19 19 17 17 18 21 21 21 20 19 20 19 20 22 23 22 21 51 54 50 41 42 41 40 42 41 44 49 47 47 48 48 53
21 21 21 21 21 22 23 25 25 25 24 24 25 24 23 20 20 23 17 25 32 35 37 33 41 41 34 37 43 50 55 53 51
23 23 24 24 25 25 24 24 24 27 28 26 26 24 24 23 22 22 16 16 16 17 21 20 23 21 29 29 27 29 29 33 42
24 24 25 26 27 27 27 28 27 26 27 31 31 27 25 24 26 24 23 25 25 20 22 24 25 23 22 23 23 24 27 25 22
23 23 25 28 29 29 29 27 28 29 30 30 31 30 28 26 24 25 25 27 27 27 27 29 29 27 25 26 26 25 21 22 23
23 24 23 24 27 28 28 28 29 29 29 30 32 33 32 30 28 27 25 24 23 24 26 28 31 32 31 29 29 27 27 26 26

GFSFLT1_500_spd_162.txt.gz
Wind_Speed
25 22 21 16 16 18 15 13 14 15 11 15 16 15 15 17 18 18 21 21 21 18 20 20 18 18 18 18 17 20 18 16 15
23 23 24 21 21 21 23 20 12 18 17 18 17 15 16 18 19 19 20 21 20 20 21 21 18 21 21 20 20 19 17 16 15
19 18 18 20 21 19 18 18 17 24 19 17 20 18 16 18 19 19 20 22 21 23 25 23 24 22 24 24 23 23 19 19 16
14 16 15 16 17 17 15 17 21 22 17 19 23 21 19 18 20 20 21 20 24 25 27 25 22 26 29 28 26 25 22 21 18
14 13 11 14 15 17 17 16 21 24 24 23 22 27 24 22 21 21 20 20 20 26 27 25 24 22 30 17 20 26 25 26 23
17 16 17 18 17 17 19 19 20 23 26 26 23 21 21 27 26 24 23 21 22 23 27 26 24 27 26 22 25 25 27 27 27
24 24 20 19 21 24 25 26 26 24 24 28 27 22 28 24 30 29 28 25 23 21 21 23 23 24 24 22 22 24 29 27 27
19 21 20 19 20 20 21 22 25 28 26 31 33 34 32 31 26 29 32 30 26 24 22 24 24 24 26 25 25 26 27 28 29
22 22 19 19 20 19 18 18 22 22 24 26 32 32 34 31 34 48 41 35 32 29 27 26 27 27 28 28 29 29 28 28 29
22 22 18 19 19 19 20 21 21 22 24 26 28 32 34 30 26 25 33 38 31 29 27 26 28 28 29 30 31 30 28 29 29
23 24 20 18 20 19 19 18 21 22 23 23 25 27 31 34 35 37 35 34 32 33 30 31 30 30 30 30 29 29 29 30 31
22 20 19 17 20 20 17 17 19 21 21 25 25 28 30 32 37 34 40 45 39 32 32 33 33 32 33 32 33 33 35 34 35
24 19 19 18 19 20 20 21 20 18 18 21 22 28 33 34 39 38 40 28 28 35 34 34 33 33 33 35 35 35 37 39 39
20 23 19 19 17 19 18 19 21 20 15 16 17 22 20 30 36 30 40 35 31 37 35 40 36 36 39 37 36 37 40 41 42
20 22 22 21 19 20 19 18 20 20 21 18 15 17 17 19 23 26 23 28 33 38 41 40 41 36 36 39 40 40 41 44 43
21 23 24 24 24 22 21 21 21 22 25 25 25 23 21 18 19 15 17 18 23 43 51 47 46 45 46 41 40 38 40 43 47
23 25 27 28 26 24 24 24 25 23 25 26 25 26 24 21 19 18 16 14 21 12 17 29 27 25 24 32 35 37 37 39 44
25 25 26 27 26 25 25 26 27 28 28 27 27 26 25 26 25 21 18 17 15 17 16 15 15 13 15 15 14 9 8 14 15
23 25 26 26 27 27 27 28 29 30 29 29 28 28 27 26 26 24 21 19 19 19 19 18 19 17 14 15 17 17 19 18 21
24 24 24 25 26 27 26 27 28 29 29 29 29 29 28 28 28 27 24 22 21 20 19 17 15 15 18 20 22 21 23 23 23

GFSFLT1_500_spd_165.txt.gz
Wind_Speed
14 19 9 10 10 8 13 12 11 9 11 12 8 8 9 10 13 13 16 20 20 20 18 19 18 17 18 18 18 19 19 17 17
9 10 10 10 10 12 17 17 14 13 14 18 13 9 11 12 14 14 16 20 21 19 21 20 21 23 22 18 18 19 21 18 18
11 8 8 9 13 11 15 17 15 12 14 12 16 12 14 13 15 16 18 20 20 20 20 21 23 23 23 21 21 21 21 20 18
13 9 10 11 13 14 11 18 17 12 18 18 21 15 15 14 17 19 18 20 22 22 19 19 21 23 23 23 24 23 22 24 21
14 4 7 9 9 9 11 14 16 14 16 22 20 20 20 20 20 21 21 20 23 23 23 21 22 25 24 24 22 27 27 28 26
20 14 10 10 11 18 15 17 17 16 15 20 25 26 24 27 27 24 24 24 23 25 23 25 25 25 24 21 26 30 26 32 32
24 22 16 15 13 15 18 20 23 21 21 21 31 31 28 29 31 31 29 28 26 25 25 24 27 30 28 28 25 26 30 33 32
16 14 13 15 15 18 18 21 23 22 22 24 25 28 34 31 33 31 30 29 27 27 28 27 27 27 27 26 26 26 28 30 32
13 14 12 16 17 18 19 20 20 19 20 24 19 23 28 34 37 34 30 32 33 30 32 32 30 28 28 28 27 28 26 24 27
16 14 12 19 20 20 19 18 19 20 20 23 22 20 28 26 35 30 39 35 40 38 39 37 33 32 30 29 29 28 26 25 26
16 14 15 21 20 20 18 17 17 17 17 20 19 21 25 26 27 31 34 35 47 49 39 37 36 35 31 31 29 27 27 26 27
17 15 18 19 18 19 19 18 17 19 22 21 17 19 23 24 27 27 29 39 24 46 44 40 39 36 33 30 28 30 29 28 29
15 17 15 18 20 20 20 20 18 18 19 19 18 15 19 21 24 27 30 35 41 32 32 31 40 38 34 33 34 33 28 29 31
19 19 17 16 20 20 21 21 19 17 17 18 18 15 14 16 18 19 20 25 33 37 29 35 34 34 34 35 35 34 32 33 35
24 21 18 20 20 21 22 23 21 19 18 19 19 20 16 15 16 18 18 19 20 20 25 26 31 32 33 35 34 35 37 40 38
25 25 20 20 21 21 22 23 23 23 23 21 22 22 22 20 20 21 19 15 14 15 9 16 21 27 35 35 35 40 36 38 40
27 26 22 21 22 22 24 24 23 25 27 26 25 25 25 24 20 19 19 18 15 11 11 13 13 26 37 38 40 40 50 47 46
29 28 25 23 22 23 24 25 25 27 28 29 30 29 27 26 24 21 18 18 15 12 10 5 10 11 17 24 18 14 11 24 35
28 28 27 25 24 24 25 26 28 29 30 31 30 31 29 27 25 23 22 19 16 16 15 16 12 8 7 8 8 9 11 11 13
27 26 25 24 24 24 24 26 28 29 30 31 30 31 30 28 27 25 23 23 20 17 17 17 15 15 14 12 11 10 11 13 13

GFSFLT1_500_spd_171.txt.gz
Wind_Speed
18 16 18 14 13 13 10 9 9 3 15 11 13 13 12 11 13 17 19 22 23 22 22 23 22 20 19 20 18 17 18 18 16
16 15 27 15 15 15 14 15 14 13 13 13 15 16 15 16 16 17 19 21 24 22 21 22 24 25 25 22 21 19 18 17 16
10 16 23 18 18 17 14 17 18 19 17 16 14 15 17 16 18 18 18 21 21 22 22 23 24 25 26 23 21 21 19 19 18
6 8 15 16 16 14 15 14 16 15 13 14 17 19 23 23 20 21 20 22 24 24 24 25 25 25 24 24 23 23 23 21 20
4 6 13 16 16 16 13 12 12 14 13 13 18 22 22 25 25 23 23 23 26 27 27 27 29 28 27 26 26 26 27 26 25
10 12 13 15 18 15 12 11 12 11 13 14 16 18 24 23 24 22 28 27 28 29 31 31 32 30 29 29 29 28 29 28 28
10 10 11 10 11 9 7 10 11 11 13 18 21 20 19 20 22 27 30 33 36 32 30 32 34 32 31 32 30 30 30 30 28
2 1 1 10 4 4 6 10 12 13 14 16 19 19 17 19 22 25 31 33 45 38 32 35 35 35 34 35 33 33 32 33 32
4 3 4 6 3 7 10 9 11 13 13 12 14 16 18 19 21 24 28 33 30 37 29 36 39 36 36 36 36 35 37 36 34
11 11 11 8 11 11 12 12 12 12 10 10 11 12 15 17 17 21 22 27 30 29 32 25 45 41 36 36 37 38 39 39 39
8 10 14 19 19 16 15 10 9 11 9 9 8 12 15 15 15 19 23 25 25 26 29 27 39 41 34 43 40 38 40 39 38
7 12 17 19 19 16 14 12 10 11 10 9 8 9 11 10 10 14 18 23 25 24 23 23 25 28 34 39 50 42 45 41 38
16 20 21 19 17 14 13 12 11 12 12 10 10 9 9 10 11 12 13 14 17 19 21 26 29 28 26 30 33 42 52 47 41
19 24 23 19 18 15 13 12 12 13 12 12 12 12 11 13 13 13 14 17 19 18 18 17 19 24 28 24 30 30 45 45 43
26 21 20 20 20 18 15 14 12 13 13 13 14 14 15 16 16 16 17 17 19 20 21 16 16 17 20 21 25 28 48 48 45
17 13 15 20 22 21 18 16 14 14 15 16 17 16 17 19 20 20 20 20 21 21 19 21 18 18 15 17 29 27 37 50 45
19 25 23 21 23 23 21 19 17 16 17 18 19 19 20 21 23 24 24 23 22 22 23 21 21 19 19 16 23 18 25 30 37
25 30 29 24 23 24 22 19 20 20 20 21 22 22 23 24 25 27 27 27 25 24 23 22 22 21 18 21 23 28 29 27 24
21 20 26 28 25 23 21 21 21 22 23 23 23 23 24 26 28 28 27 27 27 26 25 25 25 23 20 19 20 25 27 26 28
21 19 19 21 24 22 22 22 21 22 23 24 23 23 25 26 26 26 26 26 26 28 26 27 28 27 26 23 20 19 20 20 18